GFSNGP_sfc_30mbdewp_000.txt.gz
Dewpoint
27 26 26 28 29 31 29 27 22 22 23 24 26 26 28 29 33 37 34 32 35 41 39 37 34 31 28 26 25 25 23 25 22 21 21 21 21 20 21 21 21 22 20 20
19 20 21 18 20 20 23 27 28 27 22 25 27 29 34 35 35 35 32 32 40 40 36 34 32 28 26 24 23 22 21 18 16 14 14 15 16 16 17 17 17 18 18 18
11 24 23 19 24 23 20 20 18 18 20 25 27 32 34 35 35 33 31 38 39 36 35 32 27 25 24 22 20 15 17 11 10 11 11 12 12 13 14 13 15 15 15 16
19 23 17 25 29 28 24 26 26 25 28 31 34 33 33 34 35 31 35 38 36 34 31 28 24 23 20 17 12 8 10 9 10 10 10 11 11 11 11 11 12 12 14 12
24 24 26 28 28 28 28 30 31 32 32 33 33 32 32 35 35 36 38 36 34 31 29 25 21 17 12 8 6 6 8 9 10 11 11 11 11 11 11 11 11 12 11 11
26 24 20 26 30 31 29 25 34 35 34 35 34 31 32 37 37 37 36 33 31 29 24 20 14 8 5 5 5 5 8 9 11 12 12 11 11 11 12 12 12 12 12 12
27 26 27 30 31 32 26 23 35 34 33 33 34 35 36 38 36 35 33 31 27 25 20 14 7 6 5 6 5 7 9 11 12 12 12 12 12 13 14 14 14 14 13 12
27 26 22 33 32 30 31 34 33 32 32 32 34 36 37 36 35 34 31 27 23 19 13 8 8 7 6 6 7 9 10 12 12 13 13 13 14 15 15 15 14 14 14 14
29 27 32 33 32 33 34 33 33 33 33 32 35 35 36 35 35 34 28 21 16 14 11 8 8 9 7 8 9 10 12 12 13 13 13 13 15 15 15 15 14 15 15 18
31 32 34 33 33 34 34 34 34 34 33 33 32 33 35 34 34 31 23 16 13 9 7 7 9 9 9 10 11 12 12 13 13 13 14 14 14 15 15 15 15 16 19 20
33 34 33 34 34 34 34 34 34 34 33 33 32 33 35 35 35 27 18 15 10 8 8 9 10 9 10 11 12 12 13 13 13 14 14 15 15 15 15 16 18 20 21 21
31 34 33 33 34 35 35 34 34 33 32 33 34 34 36 34 25 19 13 10 8 9 10 9 10 10 11 12 13 13 13 13 14 15 15 15 15 15 17 19 20 20 20 20
34 34 33 34 35 35 35 34 33 33 33 33 35 36 32 18 13 12 8 8 8 9 10 11 11 11 12 12 13 14 14 14 15 16 16 15 15 16 18 20 20 19 19 19
34 34 34 35 34 34 34 35 35 35 36 36 35 29 21 15 9 7 8 9 10 10 11 11 11 11 12 13 14 14 14 16 17 16 16 17 18 19 19 18 18 18 19 19
35 36 35 35 34 35 34 33 32 32 32 32 30 23 12 8 7 8 10 11 11 11 11 11 11 11 12 13 14 15 15 16 17 17 17 18 18 18 19 19 18 18 18 20
35 34 33 33 33 33 33 32 32 32 32 28 23 13 8 8 9 10 10 11 11 10 11 11 12 12 14 15 15 16 17 17 17 17 17 18 18 18 18 17 18 19 20 19
33 30 28 27 30 31 33 33 32 32 31 24 13 9 9 9 10 10 10 11 11 11 12 12 12 13 15 16 16 17 17 18 17 17 18 18 18 18 18 20 21 19 18 20
30 29 31 31 31 32 33 33 32 29 20 13 10 9 9 10 9 10 10 11 11 11 11 12 13 15 16 17 17 18 18 17 17 17 17 18 18 19 19 18 19 20 19 19
30 28 28 30 31 32 32 31 28 16 12 10 9 9 10 11 11 11 11 11 10 10 10 11 14 16 16 17 16 16 16 16 17 18 18 19 20 21 21 19 18 19 20 18
24 23 23 28 31 31 30 23 15 12 9 10 10 11 10 10 10 10 11 11 11 11 13 15 16 16 15 15 16 16 17 18 18 18 18 17 18 19 20 19 18 18 16 15
24 22 18 18 22 21 20 15 12 9 9 11 11 10 10 11 11 11 10 10 10 12 14 15 15 15 15 15 16 17 17 17 17 17 18 18 18 18 18 17 16 15 16 16
24 24 22 17 12 10 10 9 9 10 11 12 12 12 11 11 11 11 12 12 13 15 15 15 14 14 15 16 17 17 17 16 15 14 14 14 15 16 16 16 16 17 17 18
23 25 25 20 15 12 10 12 12 13 13 13 12 12 11 12 13 12 12 12 14 15 14 13 14 15 16 16 15 14 13 13 13 13 14 15 15 16 17 17 18 19 19 18
24 25 26 22 15 12 10 11 14 14 14 13 13 14 14 12 12 13 13 14 13 13 13 13 13 14 15 14 12 12 12 13 13 14 15 16 17 18 19 19 19 19 19 18
22 24 24 21 16 14 14 15 14 14 14 12 12 12 12 12 12 12 12 13 13 13 12 12 12 12 12 11 12 12 13 14 15 16 18 17 16 17 18 19 19 19 20 20
24 25 24 19 17 16 16 15 14 12 12 12 12 12 12 12 13 13 12 12 11 10 9 9 10 11 12 12 13 13 13 14 14 15 15 16 17 18 18 19 19 19 19 19
21 21 19 19 17 15 14 13 12 12 11 12 12 13 13 12 11 10 9 9 8 9 9 10 11 11 12 13 13 13 14 14 15 15 17 18 18 17 17 18 19 19 19 19

GFSNGP_sfc_30mbdewp_003.txt.gz
Dewpoint
27 27 30 30 29 27 24 24 22 22 23 23 25 26 26 28 31 35 36 33 37 40 38 35 31 27 24 22 21 19 18 12 12 13 12 12 13 13 14 14 13 14 15 14
21 21 20 21 24 30 29 29 26 27 25 24 27 30 33 34 33 35 35 32 38 39 35 32 28 25 23 21 17 13 13 9 11 11 11 11 12 12 12 12 12 12 12 13
19 22 22 16 19 20 19 20 21 18 18 26 30 33 33 35 34 35 33 34 39 36 33 30 25 23 21 17 10 7 10 9 10 11 11 11 12 11 11 11 12 11 12 13
14 22 11 22 29 27 24 27 23 31 31 32 33 33 32 33 35 34 32 37 36 33 30 25 23 19 15 9 6 6 8 9 10 11 11 12 12 11 12 12 12 12 12 12
20 21 24 28 28 27 28 31 33 32 33 33 32 31 32 34 35 34 36 36 34 30 27 22 18 13 7 5 6 6 8 9 10 11 12 12 11 12 12 12 13 13 13 13
26 23 19 26 30 31 28 28 35 34 34 34 34 30 32 36 37 36 35 32 30 27 23 19 11 6 5 6 5 6 8 10 11 12 12 12 12 12 13 14 14 14 14 14
27 25 26 29 31 31 25 23 34 32 32 31 31 33 35 37 36 35 33 31 27 25 19 12 7 7 6 5 5 8 10 11 12 13 13 12 13 13 14 15 14 15 14 15
27 26 24 32 32 30 31 34 32 32 32 31 32 34 36 37 35 34 30 28 24 19 12 7 8 7 6 4 8 10 11 12 13 13 13 13 14 15 16 15 15 14 15 15
28 27 33 33 32 33 33 32 33 33 33 32 33 35 36 36 35 33 29 22 18 15 10 6 8 8 5 7 10 11 12 12 12 13 13 14 15 15 15 15 14 15 16 17
31 33 33 33 34 34 34 34 34 34 33 33 32 32 34 35 34 31 24 20 14 9 5 6 9 8 8 10 11 12 11 12 13 13 14 15 15 15 15 14 15 16 18 20
32 34 34 33 34 34 34 34 34 34 34 33 32 32 34 34 35 30 21 15 10 7 7 7 9 9 10 11 11 11 12 13 13 13 14 15 15 15 15 16 18 19 20 20
29 33 32 33 34 35 34 34 35 34 34 33 34 33 35 35 33 24 19 11 8 7 8 8 9 10 10 11 12 12 12 12 13 15 16 16 15 14 16 18 19 19 20 19
33 34 33 33 35 35 35 34 35 34 34 32 35 35 35 26 19 14 9 7 7 8 9 10 10 10 11 12 12 12 13 13 14 16 16 15 15 16 17 18 18 18 18 18
34 34 34 35 33 34 34 35 35 35 35 35 35 33 28 20 13 9 6 8 10 10 10 11 11 10 11 12 13 13 13 16 16 16 17 17 17 17 17 17 17 17 17 18
35 35 34 34 34 34 34 34 32 32 33 33 33 31 20 14 9 6 9 10 11 10 9 10 10 10 11 13 13 14 14 15 16 17 18 17 17 17 17 17 17 17 17 18
34 33 33 32 32 32 32 32 31 31 32 32 31 26 17 9 7 9 10 11 9 7 10 10 10 11 13 14 14 16 16 17 17 17 17 16 16 17 17 17 17 19 19 17
33 32 31 27 25 28 30 32 32 32 32 30 27 21 9 8 9 9 9 10 10 10 11 11 11 12 14 15 16 17 17 17 17 16 16 16 17 17 18 20 21 18 18 18
31 28 26 27 27 28 30 32 32 32 31 30 18 10 9 9 7 8 9 10 10 10 10 11 12 14 16 16 17 17 17 16 16 16 16 17 18 19 20 19 19 19 18 19
29 28 27 27 28 30 31 31 31 31 21 14 11 9 9 9 10 10 11 10 9 9 9 11 14 16 16 16 15 16 16 16 16 17 18 18 17 19 20 19 19 19 18 17
26 27 25 24 27 30 30 31 28 21 14 11 9 9 8 10 10 10 11 10 10 10 12 14 15 16 15 15 16 16 16 17 17 16 16 16 16 16 16 16 16 15 15 15
24 24 22 19 19 24 28 26 20 17 13 10 9 8 9 10 11 11 10 9 10 12 14 16 15 15 15 15 16 17 17 17 16 15 15 14 14 14 15 15 15 16 16 16
20 22 23 22 19 16 13 12 14 13 9 9 10 11 11 11 11 11 12 11 12 15 15 15 14 14 15 16 16 16 15 14 13 12 12 13 14 15 15 16 16 17 17 18
20 21 23 24 23 20 15 11 10 9 9 11 12 12 12 12 12 12 10 12 14 14 13 13 14 14 15 15 15 14 12 11 12 12 13 14 14 15 17 17 18 18 17 18
20 22 23 25 24 19 17 13 12 12 13 14 13 13 13 12 11 12 12 13 13 13 13 13 13 13 14 13 11 11 12 12 13 14 14 15 17 18 17 17 17 17 17 17
21 21 22 23 23 22 17 14 13 14 14 14 12 12 12 12 11 12 13 12 12 12 11 11 11 12 11 11 12 12 12 13 14 15 18 17 16 16 17 17 17 17 18 19
21 22 23 23 22 18 16 16 15 14 12 12 12 11 12 13 13 12 11 11 10 9 9 9 9 11 12 12 12 13 13 14 14 15 15 17 17 17 17 17 16 16 17 18
22 22 20 20 18 16 15 14 12 12 12 12 12 12 12 11 10 9 9 8 8 8 9 9 10 10 11 12 13 13 14 14 14 15 17 17 16 16 17 17 17 18 18 18

GFSNGP_sfc_30mbdewp_006.txt.gz
Dewpoint
26 29 30 28 27 26 24 24 24 24 23 23 25 26 27 29 31 34 36 35 39 39 36 31 27 25 23 20 14 14 9 9 10 11 12 12 12 13 13 13 13 13 12 12
21 22 23 26 29 27 26 25 24 25 24 26 29 30 33 34 34 34 36 34 39 39 35 31 26 24 21 17 8 9 9 9 10 11 12 12 13 12 12 12 12 13 12 12
22 22 20 19 21 29 28 27 27 25 25 26 31 32 32 33 34 34 35 33 38 37 33 28 24 23 18 10 7 7 8 8 10 11 12 12 12 12 12 12 13 12 12 13
16 22 16 19 29 23 25 24 24 26 30 31 33 33 32 32 34 35 34 36 38 34 29 25 23 18 12 7 6 6 6 8 10 11 12 12 12 12 12 12 13 13 13 13
16 16 21 28 28 27 25 29 32 32 32 32 32 32 32 35 35 34 34 37 35 31 26 22 17 10 5 5 5 5 7 9 10 12 12 12 12 12 12 13 13 13 13 13
25 17 12 24 30 30 31 27 34 33 34 34 33 29 31 35 36 36 36 34 30 27 23 16 9 6 4 4 4 5 8 10 11 12 12 12 12 12 13 14 14 14 14 14
26 24 26 29 31 30 26 26 35 33 32 33 31 32 34 37 36 34 32 30 26 23 19 12 6 6 5 4 4 8 10 11 12 12 12 13 13 14 14 15 15 15 14 14
27 25 22 32 32 29 31 33 32 32 32 31 32 34 36 36 35 32 30 28 24 19 12 7 8 7 5 4 8 10 11 11 11 12 12 13 14 15 16 16 15 14 14 15
27 27 33 33 33 34 33 32 32 32 32 32 32 34 35 36 35 33 29 25 21 17 10 6 8 8 5 7 10 11 11 11 11 12 13 13 15 15 15 15 14 14 15 17
30 32 32 33 34 33 33 33 34 34 33 33 32 32 33 35 35 33 27 22 17 11 6 6 9 8 8 9 11 11 10 10 11 12 14 15 15 16 16 15 15 15 18 19
32 34 34 33 34 34 34 34 34 34 34 33 32 32 33 34 34 31 25 18 12 8 6 6 8 8 10 10 11 10 11 11 12 13 14 15 16 16 15 15 17 18 18 19
29 33 33 33 34 34 34 34 34 34 34 33 33 33 34 34 35 30 22 14 9 7 7 7 9 9 10 11 11 11 12 12 12 14 16 16 15 15 17 18 18 18 18 19
33 34 33 34 35 35 34 34 35 34 34 34 34 35 35 32 26 22 14 9 7 6 8 9 9 9 10 11 12 12 12 12 14 15 15 15 16 17 16 16 17 17 18 18
34 34 34 34 33 34 34 35 35 34 34 34 35 34 30 23 17 13 10 7 9 9 9 10 9 9 10 12 13 13 13 15 15 15 16 17 17 17 16 15 16 16 17 18
34 33 34 33 33 34 34 32 30 29 32 32 33 33 26 22 15 11 7 9 10 10 9 9 10 10 11 13 13 13 14 15 16 17 18 17 16 16 16 16 16 17 17 19
33 33 33 32 32 32 32 32 30 30 31 32 32 31 27 17 11 7 9 10 8 7 9 10 10 11 12 13 14 15 16 16 17 17 17 15 15 16 16 17 17 18 19 17
33 32 30 25 22 25 27 29 31 32 32 31 31 29 20 10 8 9 10 10 10 10 10 10 10 11 13 15 16 16 16 17 17 16 16 16 16 17 18 20 19 18 18 18
32 28 23 23 24 25 27 30 31 32 32 31 30 25 15 9 7 8 8 10 10 9 10 10 11 14 16 16 16 17 16 16 16 16 16 17 17 17 16 17 18 17 18 18
27 25 26 25 26 27 28 29 30 31 30 27 21 15 11 9 9 9 11 9 9 8 9 10 14 16 16 16 15 16 16 16 16 17 17 16 16 16 16 15 16 15 16 16
27 27 25 23 24 26 26 29 30 29 25 16 12 10 9 9 10 10 10 9 10 10 12 14 16 16 15 15 16 17 17 17 17 16 16 15 14 13 14 14 14 15 15 15
23 23 22 21 20 20 24 27 26 23 19 13 11 9 8 10 11 11 10 10 10 11 14 16 15 15 15 16 17 17 17 17 16 14 13 12 12 13 14 14 15 15 15 15
21 21 22 22 22 21 19 16 17 18 16 12 10 10 10 11 11 11 12 11 12 15 15 15 15 15 15 16 16 16 16 14 13 11 11 12 13 14 14 15 15 16 17 17
21 21 21 23 23 23 20 17 13 11 10 9 9 11 12 12 12 11 10 11 14 15 14 14 14 14 15 15 15 14 12 11 11 12 13 13 14 15 15 16 16 17 16 16
22 21 21 23 23 22 21 20 14 12 11 13 14 13 13 12 11 12 12 13 14 13 13 13 13 13 13 13 12 11 12 12 13 13 14 15 16 17 17 16 16 16 17 16
22 20 20 21 22 22 20 15 13 14 14 14 13 12 12 12 11 11 13 12 12 12 11 10 10 11 11 11 12 12 12 13 13 15 16 16 15 16 16 16 16 17 18 17
21 21 22 22 22 19 17 15 15 14 13 12 12 11 12 13 12 11 10 11 10 9 9 9 9 11 11 11 11 12 13 13 14 14 15 16 16 16 16 16 16 16 16 16
22 22 20 19 17 16 15 14 13 12 12 12 11 12 12 10 9 9 9 9 9 9 9 9 9 10 11 12 12 12 13 13 14 15 16 16 15 15 15 15 15 15 15 16

GFSNGP_sfc_30mbdewp_009.txt.gz
Dewpoint
26 29 28 27 27 24 24 24 23 24 23 24 25 28 30 29 30 33 35 37 38 38 35 29 26 24 21 16 12 10 8 8 10 12 13 12 12 13 12 12 12 11 11 11
22 27 28 28 28 26 24 24 24 24 24 26 28 29 31 34 33 34 35 36 39 38 34 29 25 24 21 13 7 9 8 8 11 12 12 13 13 12 12 12 11 12 11 11
24 22 21 24 25 28 27 27 25 24 26 26 30 32 33 33 34 34 36 35 39 38 33 28 25 23 18 7 6 7 8 9 11 12 12 13 12 11 11 11 12 11 10 11
19 20 20 24 28 29 28 26 27 25 25 28 32 32 31 33 33 33 35 34 38 36 31 25 23 19 10 6 6 6 7 8 11 12 12 12 12 11 12 12 12 11 11 12
19 18 20 26 27 25 27 27 27 28 31 33 32 32 32 35 35 35 34 37 37 33 26 23 18 12 6 5 5 5 7 9 11 12 12 11 10 11 12 12 12 12 12 12
24 15 16 22 29 30 30 23 33 33 32 32 32 29 31 35 36 35 36 35 32 26 22 17 9 6 4 4 3 4 8 10 11 12 11 11 11 12 13 13 13 13 13 13
24 19 23 28 31 30 25 23 34 34 34 33 31 31 34 36 35 34 32 30 26 23 19 12 6 6 5 4 3 8 10 11 11 11 11 12 12 13 14 14 14 14 13 13
25 21 16 31 31 27 31 34 33 32 32 31 32 34 35 36 35 32 29 27 24 19 13 8 8 6 4 3 7 10 11 11 11 11 11 12 14 15 15 15 14 14 13 14
24 23 33 33 33 34 33 32 32 32 32 32 32 34 36 35 35 32 29 26 22 17 10 7 8 7 4 6 9 10 11 10 10 11 11 13 14 14 14 14 14 14 14 16
29 32 32 33 33 33 33 33 33 33 33 32 33 33 34 35 35 33 28 23 19 14 9 7 9 8 7 9 10 11 9 9 10 11 13 13 14 15 15 15 15 15 17 17
32 33 33 33 33 34 34 34 34 34 33 33 32 32 33 33 34 33 27 22 16 12 8 7 8 8 9 10 11 10 10 10 10 11 13 14 15 15 15 16 17 17 17 18
28 33 33 33 34 34 34 34 34 34 33 33 33 33 34 33 34 30 25 16 12 9 7 7 8 9 10 11 11 11 10 10 11 14 15 15 14 15 17 18 18 18 18 19
32 34 33 34 34 34 34 34 33 33 33 33 34 34 35 33 32 29 21 14 10 7 7 9 9 9 10 10 11 11 11 12 14 15 13 14 16 17 17 16 16 17 18 18
34 34 33 34 34 34 34 35 35 34 33 34 34 34 32 24 23 19 13 9 8 9 9 9 8 8 10 11 12 12 13 15 15 14 16 17 17 17 15 15 15 16 17 17
33 33 34 33 33 34 34 32 29 28 31 32 32 32 30 26 23 14 9 9 10 9 8 8 8 8 11 12 12 14 14 14 15 17 17 17 16 15 15 16 16 16 17 17
32 32 32 32 32 32 32 30 29 29 30 31 31 31 30 23 16 9 9 10 8 6 8 9 9 10 12 13 14 15 15 15 16 16 16 15 15 16 16 16 17 17 16 16
32 31 30 27 26 28 26 28 29 30 31 31 31 30 26 16 9 8 9 10 9 9 10 10 10 11 13 15 16 15 16 16 17 15 16 16 16 16 17 17 16 16 16 16
33 32 27 21 23 24 26 28 29 30 31 32 30 28 21 13 11 7 8 10 10 9 9 10 11 14 17 16 16 16 17 16 16 16 16 16 17 16 15 16 15 15 16 15
23 24 24 24 24 25 26 27 29 30 30 30 28 26 20 13 9 9 10 9 9 8 9 11 14 16 16 16 16 16 16 16 16 16 17 16 15 15 14 14 14 15 15 14
25 25 24 24 25 25 25 27 29 29 28 23 18 14 12 9 9 10 10 9 10 10 12 14 16 16 15 15 16 17 17 17 17 16 15 14 13 12 13 13 14 13 14 14
25 23 21 21 20 21 23 25 26 25 22 16 14 13 10 9 10 10 10 10 10 11 15 16 15 15 15 16 17 17 17 16 15 14 13 12 11 12 13 13 14 14 14 14
22 22 22 22 21 22 21 18 19 20 18 15 12 10 9 10 11 12 12 11 12 15 15 15 15 15 16 16 16 16 15 14 12 11 11 12 12 13 14 15 15 15 16 16
20 21 21 21 22 23 21 19 16 13 13 12 10 10 10 12 12 11 10 11 14 15 15 14 14 14 15 14 14 13 12 11 11 12 12 13 14 15 15 16 16 16 15 15
22 21 21 23 23 21 21 19 15 12 11 12 13 13 13 12 11 12 12 13 14 13 13 13 13 13 13 13 12 11 12 12 12 13 13 15 16 17 16 15 15 15 15 15
22 20 20 21 22 22 19 14 13 14 14 13 12 12 12 12 10 11 12 11 12 12 11 10 11 11 11 11 12 12 12 12 13 14 15 15 15 16 16 16 16 15 16 15
21 21 21 21 20 18 16 15 14 14 13 12 11 12 12 12 10 10 10 10 9 9 8 9 9 11 11 11 11 12 12 13 13 13 14 15 16 16 15 14 14 14 14 14
22 20 18 17 16 16 15 14 13 12 12 11 11 11 9 8 8 8 8 8 8 9 9 9 10 10 12 12 12 12 12 13 13 14 16 15 14 14 14 13 13 13 14 14

GFSNGP_sfc_30mbdewp_012.txt.gz
Dewpoint
28 29 29 28 30 28 30 31 27 27 26 26 26 30 31 32 32 32 34 37 38 38 37 33 29 26 23 19 15 9 7 7 9 9 10 10 10 9 9 10 10 9 9 8
25 29 28 27 28 29 30 30 28 27 26 27 27 30 30 31 32 33 34 36 38 39 37 33 28 25 23 16 10 8 6 7 9 9 9 9 10 9 9 10 10 9 8 7
25 24 26 26 27 27 27 27 26 25 27 27 28 28 30 32 33 34 34 36 37 38 37 32 28 26 22 13 8 6 6 6 8 9 9 9 9 8 8 9 9 9 8 8
23 24 24 26 28 28 27 27 27 27 27 28 28 32 33 34 34 35 36 36 38 39 35 30 27 24 15 9 7 5 5 5 8 8 8 8 7 7 8 8 8 8 8 8
26 23 22 22 27 26 28 28 29 28 27 31 32 33 34 35 35 35 35 36 38 37 33 27 24 18 12 8 5 4 5 6 7 7 7 6 6 7 8 8 9 8 8 9
26 21 22 22 29 28 29 22 29 29 30 32 32 29 32 35 35 36 37 37 35 31 27 24 18 12 10 6 3 2 5 7 8 8 8 6 8 8 9 9 9 8 8 8
29 32 23 27 30 31 21 25 32 32 32 33 31 33 35 35 35 34 34 33 29 26 24 20 12 10 7 3 2 6 8 8 8 7 7 7 8 9 10 10 9 8 8 9
30 31 24 31 30 27 32 35 35 35 34 33 34 35 35 35 34 32 30 29 26 24 19 13 10 8 5 3 6 8 9 8 7 7 7 8 11 12 11 8 8 7 8 11
26 25 33 34 33 35 35 34 33 33 33 33 34 34 35 36 34 32 30 27 24 22 16 12 9 6 4 5 8 8 8 7 6 7 8 10 10 10 9 8 8 9 11 13
28 32 32 33 34 34 34 33 34 33 33 33 34 35 35 35 35 33 31 28 24 20 18 12 9 8 6 8 9 9 7 6 6 7 10 10 9 9 9 8 10 11 13 14
31 33 33 33 33 34 34 34 34 34 34 34 34 33 34 34 35 35 31 27 23 21 17 13 8 7 8 9 9 7 6 6 7 8 10 10 8 9 11 13 15 17 17 17
29 33 32 32 34 35 34 34 34 34 34 34 34 33 34 34 34 34 30 25 21 18 14 8 7 7 8 10 9 8 7 7 8 11 10 8 8 9 12 15 17 18 18 18
31 34 34 34 35 35 35 35 34 34 33 33 34 35 34 34 34 31 26 21 18 15 10 8 8 8 8 9 10 9 8 9 10 9 8 9 10 11 12 11 13 15 16 17
34 34 34 34 34 35 35 35 34 33 33 33 34 34 31 29 30 27 22 18 12 9 9 8 8 7 8 10 10 10 11 12 11 9 11 12 12 12 11 11 12 12 14 16
34 34 34 34 34 35 35 33 29 29 30 32 33 32 31 28 26 21 13 10 9 9 9 8 8 8 10 11 11 11 12 10 10 11 12 13 13 12 12 12 12 12 12 12
33 34 35 34 34 33 31 29 27 28 30 31 31 31 31 29 24 16 11 10 8 7 7 9 9 9 11 12 12 13 11 12 14 12 12 12 12 12 12 12 12 12 12 11
32 32 32 32 32 31 28 28 28 29 30 31 31 32 30 23 16 12 10 10 9 9 10 10 9 11 12 14 14 12 11 11 14 13 13 13 13 12 12 12 12 11 11 12
35 34 33 31 27 26 26 28 29 30 31 32 31 30 27 20 18 11 9 10 10 10 10 10 11 13 15 14 13 12 12 12 14 14 14 13 13 13 13 11 11 11 12 13
32 28 23 24 25 25 26 27 29 30 31 31 30 29 27 21 15 9 9 9 8 8 9 11 14 16 14 13 15 13 13 15 14 13 12 12 11 11 11 11 11 12 12 12
25 25 25 25 26 26 26 27 29 29 30 29 27 24 20 15 10 10 10 9 10 10 12 13 15 13 12 12 15 17 16 15 13 11 11 11 10 10 11 11 12 12 12 12
24 24 24 24 23 24 25 26 26 26 25 21 19 17 14 10 10 10 10 9 11 12 15 15 14 12 12 15 17 15 14 12 11 10 9 9 9 10 11 12 13 13 13 13
23 22 21 21 21 22 21 20 22 22 20 17 14 12 10 10 11 12 12 12 12 15 14 14 12 13 15 17 14 13 11 9 9 9 9 10 11 13 14 14 15 15 15 15
22 21 22 22 22 23 21 19 16 15 15 15 12 11 10 11 12 12 11 12 13 13 14 12 13 14 15 14 11 10 9 9 10 10 11 13 14 15 16 15 15 15 15 16
22 21 22 23 23 22 22 18 14 12 11 11 12 13 13 13 12 12 11 12 13 13 12 10 12 13 14 11 9 10 10 10 11 13 13 15 16 16 15 15 15 15 15 14
23 22 22 22 22 22 19 15 15 15 14 13 12 12 12 12 10 10 10 8 10 9 7 8 11 13 11 10 10 10 11 12 13 14 14 14 15 15 15 15 15 14 15 14
21 21 22 22 22 19 16 15 14 14 13 12 12 12 10 9 7 9 6 8 6 8 7 8 9 11 11 10 11 11 11 12 12 12 14 14 15 15 14 13 13 13 13 13
22 20 18 17 17 16 15 15 14 13 12 11 11 8 7 6 5 5 6 5 6 7 8 9 9 10 11 11 12 11 11 12 13 14 14 14 13 13 13 12 13 13 13 13

GFSNGP_sfc_30mbdewp_018.txt.gz
Dewpoint
36 36 36 36 37 36 34 33 29 27 25 25 29 30 30 32 35 37 37 38 38 39 37 35 33 30 27 23 18 15 14 14 12 11 10 10 11 11 10 11 12 13 12 12
28 32 34 35 36 36 35 32 31 32 31 29 28 31 31 32 34 36 37 38 38 39 37 35 32 28 25 21 16 13 12 12 10 9 9 9 10 10 10 11 12 12 12 12
25 28 29 27 32 33 34 34 33 32 32 32 27 29 30 31 34 35 36 38 38 39 37 35 31 27 23 19 14 12 10 9 8 8 8 8 9 8 9 10 10 11 11 11
27 27 23 26 28 29 29 30 32 31 31 30 29 32 34 33 32 33 35 37 38 39 38 34 30 26 21 15 13 11 9 7 7 7 7 7 8 8 9 10 10 11 11 10
27 28 28 28 25 27 28 28 29 29 31 32 33 33 34 35 36 36 36 37 39 39 34 30 28 20 15 13 10 9 7 6 6 6 7 7 7 8 9 11 12 11 10 9
35 27 24 25 28 27 29 27 30 30 30 32 32 29 33 36 37 38 39 39 37 33 30 27 20 17 15 11 9 6 6 6 7 7 7 7 7 8 11 13 13 11 10 8
34 32 31 29 28 28 25 27 31 31 32 33 32 34 35 36 36 37 36 33 31 29 27 22 19 18 12 8 5 6 7 7 7 7 7 7 9 11 13 14 12 11 8 7
34 32 29 30 29 27 33 33 32 34 35 35 35 34 34 35 34 33 32 31 29 25 20 19 18 13 9 6 7 7 8 8 8 7 7 8 12 14 14 12 10 8 8 9
35 34 33 33 34 35 35 34 35 36 36 35 34 34 34 33 32 31 29 28 25 20 18 16 15 10 7 7 7 7 7 7 6 6 8 10 11 12 11 10 8 8 10 12
29 31 32 34 34 35 36 35 36 35 35 35 35 35 34 33 31 29 28 27 23 20 17 13 10 8 8 8 8 7 7 6 6 8 11 11 11 11 10 8 9 10 12 15
30 33 33 34 34 35 34 34 34 35 35 35 35 35 35 33 32 31 29 27 24 22 18 14 11 8 9 8 8 7 6 6 9 10 11 11 11 10 10 11 12 14 15 15
29 32 31 33 35 35 34 34 35 35 35 35 35 35 35 35 34 32 29 28 27 24 18 13 9 8 9 9 9 8 8 10 11 12 13 12 10 10 13 13 14 14 14 15
32 34 34 35 35 35 35 35 35 35 34 34 34 34 34 34 34 33 29 27 24 22 13 10 8 8 8 9 10 10 10 11 12 13 13 10 11 11 11 13 13 13 14 14
35 35 34 34 34 35 35 35 34 33 33 33 33 33 34 34 32 28 26 24 20 15 11 9 8 7 8 9 10 11 12 14 14 13 12 13 13 13 13 12 12 12 13 14
34 35 35 35 35 34 33 31 30 30 31 31 31 29 30 30 28 25 20 16 14 12 9 8 8 8 10 11 12 12 13 13 13 13 14 14 14 13 13 12 12 12 13 13
36 36 35 35 35 34 31 29 28 29 30 30 30 30 29 28 21 17 14 12 11 9 9 9 9 11 12 13 13 14 14 14 14 14 13 13 13 13 13 12 12 13 12 12
34 34 35 34 33 31 27 27 28 29 29 29 31 30 27 23 19 15 14 12 10 11 11 11 12 13 13 14 14 14 13 13 13 13 13 14 14 13 12 13 12 12 11 12
36 36 36 35 31 26 27 28 28 29 29 31 32 30 26 23 20 16 13 10 10 10 11 12 14 15 16 16 15 15 15 14 14 15 15 14 13 12 11 11 11 12 12 13
36 35 34 29 27 28 28 29 30 31 32 31 31 30 27 25 20 14 11 10 9 9 13 14 16 16 16 14 14 15 16 16 16 15 13 11 10 10 10 10 11 12 13 13
30 27 26 27 27 27 28 29 30 31 31 31 30 28 25 19 12 11 10 10 12 14 14 16 16 14 13 12 15 17 17 16 15 12 10 10 9 9 10 11 13 14 14 14
26 26 26 26 26 27 28 28 28 27 27 26 25 23 19 13 12 11 9 11 14 16 16 15 14 13 14 16 18 17 16 14 11 9 9 9 9 11 13 15 15 15 15 15
25 25 25 25 25 25 24 24 24 22 20 18 17 14 12 11 12 13 13 13 15 16 15 13 12 15 16 17 16 15 12 10 9 10 10 10 13 15 15 16 17 16 16 16
24 24 23 23 22 20 19 19 19 18 17 15 13 12 12 13 13 12 12 14 13 15 13 12 13 14 16 16 15 12 10 10 10 10 13 14 15 16 17 17 15 16 16 16
23 24 24 22 21 20 18 14 14 13 13 13 14 13 13 12 12 12 12 11 12 12 9 9 11 14 15 12 11 11 11 10 11 13 14 15 15 16 16 15 16 17 16 15
24 24 23 23 22 20 17 15 14 14 13 12 12 11 9 10 12 8 6 7 8 8 8 9 11 11 11 11 11 11 11 12 12 13 14 14 16 16 16 16 15 14 15 14
24 24 23 23 21 19 16 15 14 13 13 13 11 8 7 6 7 5 5 6 5 7 6 8 9 11 11 11 12 12 12 12 12 13 15 16 16 15 14 14 14 13 13 13
23 21 19 18 17 17 16 15 14 14 14 12 8 6 5 3 4 3 4 3 4 6 7 8 9 10 11 11 11 10 11 12 13 14 14 13 14 13 13 13 13 13 13 13

GFSNGP_sfc_30mbdewp_024.txt.gz
Dewpoint
32 33 34 35 33 34 31 33 30 32 29 28 27 28 34 36 38 38 39 40 39 38 36 32 28 25 22 18 16 16 14 13 12 11 10 11 11 10 11 11 12 12 12 13
30 35 35 34 37 35 34 33 33 35 32 28 29 31 35 36 37 38 39 39 38 37 36 32 29 24 20 16 16 15 14 13 12 10 10 10 10 9 9 10 10 11 12 13
31 37 36 33 37 33 33 37 35 34 30 29 29 30 34 36 37 38 39 39 38 37 36 33 28 22 18 16 16 15 14 12 10 9 8 9 8 8 8 8 11 12 13 13
32 35 24 26 33 39 38 36 35 34 31 29 30 33 34 36 37 38 38 39 38 37 36 31 25 20 16 15 14 13 12 10 9 8 7 8 8 7 7 9 11 13 13 12
32 30 28 25 26 31 34 33 32 35 33 32 33 33 34 37 37 38 38 39 38 37 32 27 22 17 14 13 12 11 9 8 7 7 7 7 7 7 8 11 12 13 13 11
33 28 24 25 28 28 28 27 31 30 33 32 32 29 31 37 38 38 38 37 35 30 26 21 17 14 13 12 10 9 8 7 7 8 7 6 7 8 11 13 13 13 11 10
31 32 30 33 30 30 25 25 32 33 33 33 30 33 36 34 33 32 31 29 26 24 21 17 14 13 12 10 9 8 8 7 7 8 7 7 9 12 13 13 12 10 10 10
33 30 25 32 29 24 28 35 35 35 35 34 36 35 33 32 31 29 27 24 22 19 17 14 13 12 9 9 8 8 8 8 8 7 7 10 12 12 13 12 10 11 11 12
33 31 34 34 32 35 34 34 35 35 36 35 35 34 33 31 29 26 24 22 20 18 14 13 11 9 8 7 8 8 7 6 6 8 11 12 12 12 11 11 12 12 13 14
34 33 34 33 35 36 36 35 35 35 35 35 34 33 31 30 26 24 22 20 18 16 12 10 9 9 8 8 8 7 6 6 9 11 15 13 13 12 13 13 13 15 15 15
32 32 33 33 34 35 36 35 35 35 34 33 32 31 30 28 26 23 20 18 16 13 11 9 9 8 9 8 8 6 6 9 10 13 13 13 12 13 15 15 16 16 16 16
32 32 30 31 35 36 35 35 35 34 33 33 32 31 30 28 27 23 20 18 16 12 10 9 8 8 9 9 7 7 9 10 13 15 13 13 13 13 17 16 16 16 16 16
32 34 34 35 35 36 35 35 35 34 34 33 33 31 30 29 27 26 22 19 16 14 10 9 9 9 9 10 10 10 10 13 14 14 14 13 14 14 13 14 15 15 15 15
35 35 34 34 34 35 35 35 35 35 35 34 34 33 31 30 29 25 24 21 17 12 9 9 9 9 10 11 11 12 13 17 15 14 14 14 15 14 14 14 13 13 14 14
35 35 35 35 35 34 34 34 33 33 34 34 33 32 30 28 27 24 20 15 12 10 9 9 9 10 12 12 13 14 14 15 16 15 14 16 15 15 14 14 14 12 11 12
35 35 35 34 33 33 32 32 31 31 32 32 30 29 27 23 20 17 14 12 11 9 9 9 10 12 13 14 14 14 14 16 17 16 15 15 15 14 14 13 11 11 11 11
33 33 32 32 32 31 30 30 30 29 29 29 27 22 19 16 15 14 13 12 11 10 11 12 13 14 16 15 14 14 14 15 17 16 16 16 14 13 12 10 11 11 12 13
35 34 34 32 30 29 29 29 29 29 28 26 22 19 17 16 14 12 12 12 12 12 13 14 14 16 16 15 15 15 16 16 16 16 16 12 12 11 10 10 11 12 14 14
35 34 32 29 29 29 29 29 29 29 27 24 21 19 18 15 12 11 11 10 11 11 14 17 19 15 12 16 18 18 16 16 15 14 11 11 11 10 11 12 13 14 14 14
31 29 29 29 29 29 29 30 30 29 27 25 23 20 17 14 12 10 10 11 13 13 16 16 14 13 14 17 20 15 15 14 11 10 10 11 10 12 12 14 14 14 15 14
29 29 29 29 30 30 30 30 30 29 26 23 19 16 13 12 12 13 13 13 16 17 17 16 14 16 16 19 14 14 12 11 10 10 11 11 12 13 14 15 15 15 14 14
28 28 28 29 28 28 28 28 28 26 23 18 14 13 12 12 13 14 14 15 18 16 13 12 14 16 19 14 12 11 11 11 11 11 11 12 13 14 15 14 14 14 15 14
27 27 27 26 26 23 22 21 20 19 16 14 13 13 13 13 14 13 12 15 15 12 10 13 15 17 16 11 11 11 11 11 11 12 12 13 14 14 14 14 14 13 13 13
25 24 22 21 20 19 17 15 15 14 14 14 13 13 13 12 12 14 15 15 13 11 11 14 14 15 13 11 11 12 12 11 11 12 13 13 13 14 14 13 12 12 12 13
22 21 20 19 17 16 15 14 14 12 12 11 11 12 12 11 8 7 8 11 12 7 7 11 12 13 11 11 11 11 10 10 11 13 12 14 14 13 12 12 12 12 14 12
21 20 19 17 16 15 13 13 12 11 9 8 8 7 7 8 9 7 7 7 8 9 7 8 10 11 10 10 11 9 10 10 11 12 14 13 12 11 12 12 11 12 12 13
21 19 17 16 15 14 14 13 12 11 8 6 5 5 5 6 7 6 6 6 7 8 7 7 7 9 9 10 9 9 10 11 12 13 13 11 12 12 12 12 12 12 13 13

GFSNGP_sfc_30mbdewp_027.txt.gz
Dewpoint
32 31 31 31 33 32 30 29 27 24 23 24 27 37 36 38 40 40 41 40 38 36 33 29 26 23 19 17 15 14 13 12 11 11 11 11 10 10 11 11 11 12 13 13
29 32 33 31 33 33 31 30 32 32 30 30 35 35 36 38 39 40 40 40 39 36 33 28 25 22 18 16 16 15 14 13 12 11 11 10 10 9 9 9 11 13 13 13
26 35 33 28 32 34 34 34 34 31 33 35 33 32 36 37 38 39 40 40 38 36 33 29 25 20 18 16 16 15 14 13 11 10 9 9 8 8 8 9 11 12 12 13
29 33 26 34 39 38 36 36 36 36 36 37 34 33 36 37 38 39 39 39 38 36 33 28 23 19 17 16 15 15 13 11 10 9 8 8 7 7 8 10 11 13 13 12
31 30 30 25 34 36 34 35 37 36 38 34 34 34 35 37 38 39 39 39 38 36 32 25 21 17 16 15 15 13 11 10 9 7 7 7 6 7 9 11 12 13 12 11
31 29 24 26 28 28 37 29 33 39 37 33 32 27 30 37 38 39 39 38 35 31 26 22 18 16 15 14 13 11 10 8 8 8 7 6 7 9 11 13 12 12 10 11
30 29 30 32 33 29 24 25 32 33 33 33 30 34 34 34 34 35 35 32 29 26 23 18 15 15 13 12 11 10 9 8 8 8 7 8 11 12 12 12 11 11 12 13
32 30 24 31 29 25 28 34 34 35 34 34 34 33 31 30 29 29 28 25 22 20 16 14 14 14 11 11 9 9 8 8 7 7 10 12 12 13 12 12 12 12 14 14
33 29 33 34 33 35 34 34 34 35 36 34 33 31 29 26 25 24 22 21 18 16 14 13 12 12 10 8 9 8 7 6 7 11 12 12 12 11 12 13 13 14 15 15
34 33 35 33 35 36 36 35 36 36 36 34 32 30 26 24 23 22 20 18 16 14 13 11 10 10 9 9 8 7 5 8 11 14 14 13 12 12 14 14 15 16 16 16
33 33 33 33 34 35 35 35 35 34 34 33 31 29 27 24 22 20 18 16 15 13 11 10 9 8 9 8 7 5 8 10 13 13 13 13 13 13 16 16 17 17 17 17
32 34 31 31 35 36 35 34 34 33 32 32 31 29 27 24 22 19 17 15 13 11 10 9 9 8 8 8 7 8 9 11 16 14 13 13 13 14 16 17 17 17 16 16
34 34 34 35 36 36 35 34 34 33 32 31 30 28 26 24 22 21 17 14 12 11 10 9 9 8 9 10 10 10 11 15 14 14 14 14 15 14 14 14 16 15 14 15
35 35 34 35 35 36 35 35 35 34 33 31 30 29 27 26 24 20 17 15 12 10 10 9 9 9 11 11 11 12 14 18 15 15 15 15 15 15 14 14 13 13 13 13
35 35 35 35 35 35 35 34 33 32 32 31 31 29 27 24 23 21 17 13 11 10 10 9 9 11 12 13 13 13 14 15 17 16 15 17 16 14 14 14 13 12 11 12
35 35 35 34 34 34 33 33 32 32 31 30 29 28 26 23 20 16 13 11 10 9 9 9 11 13 14 15 14 14 13 17 18 17 16 16 14 13 13 11 11 11 11 12
33 33 33 33 32 32 32 32 32 32 31 29 26 23 20 18 14 13 12 12 11 10 11 12 13 15 16 15 14 14 15 15 17 16 15 14 12 13 11 10 11 11 12 13
34 34 34 33 31 30 30 30 30 30 28 24 20 19 17 16 14 13 11 12 12 13 13 14 15 16 15 16 16 17 16 15 15 15 13 11 13 11 10 11 12 13 14 14
34 33 32 31 30 30 29 29 28 26 23 20 19 18 16 14 13 12 12 11 11 12 16 19 19 14 13 19 19 15 14 14 12 11 10 12 11 11 12 12 14 14 14 14
31 30 30 29 29 29 29 29 26 24 22 20 18 16 13 12 11 11 11 11 12 14 17 16 14 14 16 20 17 13 13 11 10 10 11 12 11 13 13 14 14 14 14 13
29 29 29 29 29 30 29 28 26 24 22 20 18 15 13 11 12 13 13 13 17 18 17 16 15 16 19 15 12 11 11 10 11 11 11 11 12 13 14 13 14 13 13 13
29 29 29 29 29 29 29 28 25 22 19 16 14 13 12 13 13 14 15 15 18 16 13 13 15 19 18 13 11 11 11 11 11 11 12 13 13 13 13 13 13 13 13 13
29 29 28 28 27 26 25 24 21 18 16 14 13 13 13 14 14 14 14 17 14 13 12 15 17 18 15 11 11 11 11 11 11 11 12 12 13 12 13 12 13 12 12 12
27 25 24 23 23 23 22 17 16 15 14 14 14 14 13 13 13 15 16 15 13 13 14 14 15 15 12 11 11 11 10 10 10 11 12 13 12 13 12 12 11 11 11 12
24 23 23 21 20 17 16 15 14 13 13 13 12 12 12 11 11 11 12 13 11 7 8 12 13 13 10 10 11 10 9 10 11 13 12 13 13 11 11 11 11 11 14 13
22 20 19 18 16 15 14 13 12 11 11 10 9 8 8 8 8 6 8 9 9 9 7 8 9 11 9 10 10 9 10 10 11 12 13 13 11 10 11 11 11 11 12 12
19 18 16 15 14 14 13 12 11 11 9 7 6 5 5 6 7 7 7 7 7 7 6 6 5 9 10 10 9 10 10 10 11 12 12 10 10 11 11 11 11 12 12 12